Location: Cactus School
(34.5700°N, 118.0931°W)
Time: 13:22:58
(UTC-08:00)

Envisat - Visible Passes

Search period start: 25 February 2018 00:00
Search period end: 07 March 2018 00:00
Orbit: 764 x 766 km, 98.2° (Epoch: 25 February)

Date Brightness Start Highest point End Pass type
(mag) Time Alt. Az. Time Alt. Az. Time Alt. Az.
25 Feb 4.1 18:26:20 10° ESE 18:30:09 22° ENE 18:33:58 10° NNE visible
25 Feb 4.4 20:04:13 10° SSW 20:08:53 36° W 20:13:34 10° NNW visible
26 Feb 2.9 19:27:02 10° SSE 19:32:07 88° W 19:37:13 10° NNW visible
27 Feb 3.4 18:50:51 10° SE 18:55:31 39° ENE 19:00:13 10° N visible
27 Feb 5.3 20:30:57 10° SW 20:34:37 20° W 20:38:18 10° NW visible
28 Feb 4.4 18:15:53 10° ESE 18:19:07 17° ENE 18:22:22 10° NNE visible
28 Feb 3.9 19:52:50 10° S 19:57:43 47° W 20:02:37 10° NNW visible
01 Mar 2.9 19:15:57 10° SSE 19:21:00 72° ENE 19:26:04 10° N visible
01 Mar 6.0 20:59:56 10° W 21:00:26 10° W 21:00:57 10° W visible
02 Mar 3.7 18:40:05 10° SE 18:44:28 30° ENE 18:48:52 10° N visible
02 Mar 5.0 20:19:14 10° SSW 20:23:24 26° W 20:27:36 10° NW visible
03 Mar 3.4 19:41:33 10° S 19:46:33 62° W 19:51:36 10° NNW visible
04 Mar 3.0 19:04:57 10° SSE 19:09:54 55° ENE 19:14:51 10° N visible
04 Mar 5.8 20:46:40 10° WSW 20:49:11 14° W 20:51:44 10° WNW visible
05 Mar 4.1 18:29:25 10° ESE 18:33:25 24° ENE 18:37:26 10° NNE visible
05 Mar 4.6 20:07:40 10° SSW 20:12:13 33° W 20:16:47 10° NNW visible
06 Mar 3.0 19:30:21 10° S 19:35:25 80° WSW 19:40:31 10° NNW visible
